Location: Gleizolles
(44.4833°N, 6.7667°E)
Time: 10:53:19
(UTC+00:00)

Tiros 1 - Pass Details

Date: 29 June 2024
Orbit: 624 x 656 km, 48.4° (Epoch: 20 July)

Event Time Altitude Azimuth Distance (km) Brightness Sun altitude
Rises 03:10:21 0° 290° (WNW) 2,913 10.2 -6.6°
Reaches altitude 10° 03:12:50 10° 281° (W) 2,007 9.3 -6.2°
Maximum altitude 03:16:56 32° 218° (SW) 1,080 7.8 -5.7°
Drops below altitude 10° 03:21:04 10° 155° (SSE) 2,015 9.5 -5.1°
Sets 03:23:34 0° 145° (SE) 2,926 10.5 -4.8°
